Location: Round Knob
(37.2473°N, 88.7376°W)
Time: 14:04:45
(UTC+00:00)

Cosmos 1812 Rocket - Pass Details

Date: 29 October 2020
Orbit: 605 x 632 km, 82.5° (Epoch: 03 December)

Event Time Altitude Azimuth Distance (km) Brightness Sun altitude
Rises 23:46:55 0° 159° (SSE) 2,891 6.9 -10.0°
Reaches altitude 10° 23:49:24 10° 147° (SSE) 1,985 5.9 -10.4°
Maximum altitude 23:53:05 27° 90° (E) 1,200 4.5 -11.2°
Drops below altitude 10° 23:56:46 10° 32° (NNE) 1,983 5.8 -11.9°
Sets 23:59:15 0° 21° (NNE) 2,887 6.7 -12.4°
